This is the latest recevied weather packets stored in our database for station/object K1BES. If no packets are shown the sender has not sent any weather packets the latest 10 day(s).
| Time | Temp. | Humidity | Pressure | Rain* | Wind** | Luminosity | Snow |
|---|---|---|---|---|---|---|---|
| 1777848337 | 23.89° C | 76% | 1016.7 hPa | 0 mm | - | 17 W/m² | - |
| 1777848034 | 23.89° C | 75% | 1016.9 hPa | 0 mm | - | 26 W/m² | - |
| 1777847732 | 23.89° C | 75% | 1017.1 hPa | 0 mm | - | 34 W/m² | - |
| 1777847427 | 23.89° C | 75% | 1016.8 hPa | 0 mm | - | 44 W/m² | - |
| 1777847126 | 23.89° C | 75% | 1017 hPa | 0 mm | - | 34 W/m² | - |
| 1777846824 | 23.89° C | 74% | 1017 hPa | 0 mm | - | 40 W/m² | - |
| 1777846522 | 23.89° C | 74% | 1016.8 hPa | 0 mm | - | 42 W/m² | - |
| 1777846219 | 23.89° C | 73% | 1016.9 hPa | 0 mm | - | 58 W/m² | - |
| 1777845915 | 24.44° C | 73% | 1016.9 hPa | 0 mm | - | 76 W/m² | - |
| 1777845612 | 24.44° C | 73% | 1016.8 hPa | 0 mm | - | 100 W/m² | - |
| 1777845309 | 24.44° C | 72% | 1016.7 hPa | 0 mm | - | 109 W/m² | - |
| 1777845006 | 25° C | 72% | 1016.7 hPa | 0 mm | - | 137 W/m² | - |
| 1777844704 | 25° C | 71% | 1016.7 hPa | 0 mm | - | 182 W/m² | - |
| 1777844400 | 25° C | 70% | 1016.6 hPa | 0 mm | - | 184 W/m² | - |
| 1777844099 | 25° C | 71% | 1016.7 hPa | 0 mm | - | 210 W/m² | - |
| 1777843795 | 25° C | 72% | 1016.9 hPa | 0 mm | - | 291 W/m² | - |
| 1777843493 | 24.44° C | 72% | 1016.8 hPa | 0 mm | - | 219 W/m² | - |
| 1777843190 | 24.44° C | 72% | 1016.8 hPa | 0 mm | - | 168 W/m² | - |
| 1777842887 | 24.44° C | 71% | 1016.9 hPa | 0 mm | - | 181 W/m² | - |
| 1777842582 | 24.44° C | 72% | 1017 hPa | 0 mm | - | 302 W/m² | - |
| 1777842274 | 24.44° C | 72% | 1017.1 hPa | 0 mm | - | 207 W/m² | - |
| 1777841974 | 24.44° C | 71% | 1017.1 hPa | 0 mm | - | 179 W/m² | - |
| 1777841671 | 24.44° C | 72% | 1017.2 hPa | 0 mm | - | 181 W/m² | - |
| 1777841367 | 24.44° C | 73% | 1017 hPa | 0 mm | - | 213 W/m² | - |
| 1777841065 | 24.44° C | 72% | 1017.1 hPa | 0 mm | - | 256 W/m² | - |
* Rain latest hour (hover to see other rain measurements)
** Current wind speed in m/s (hover to see current wind gust speed)